Location: Peterborough
(44.3091°N, 78.3197°W)
Time: 05:24:20
(UTC-04:00)

Vanguard 2 - Pass Details

Date: 22 March 2023
Orbit: 552 x 2926 km, 32.9° (Epoch: 04 June)

Event Time Altitude Azimuth Distance (km) Brightness Sun altitude
Rises 05:53:48 0° 207° (SSW) 6,762 11.9 -14.8°
Reaches altitude 10° 05:59:39 10° 196° (SSW) 5,710 11.7 -13.8°
Maximum altitude 06:11:57 25° 150° (SSE) 4,161 11.4 -11.7°
Drops below altitude 10° 06:21:56 10° 103° (ESE) 4,600 12.7 -9.9°
Sets 06:25:55 0° 91° (E) 5,248 13.8 -9.2°
